| time (UTC) | temp F | wind direction | speed MPH | gust MPH | rain 1hr in | rain 24hr in | rain mn in | humidity % | barometer mb |
| 20260905144556 | 58 | 8 | 2.0 | 4.0 | 0.07 | 0.19 | 0.17 | 100 | 1016.7 |
| 20260905143056 | 57 | 101 | 1.0 | 3.0 | 0.07 | 0.19 | 0.17 | 100 | 1017.2 |
| 20260905141556 | 57 | 288 | 1.0 | 3.0 | 0.06 | 0.18 | 0.16 | 100 | 1018.2 |
| 20260905140056 | 57 | 293 | 0.0 | 3.0 | 0.06 | 0.16 | 0.14 | 100 | 1017.7 |
| 20260905134556 | 57 | 75 | 0.0 | 0.0 | 0.02 | 0.12 | 0.10 | 100 | 1017.8 |
| 20260905133056 | 57 | 75 | 0.0 | 0.0 | 0.02 | 0.12 | 0.10 | 100 | 1017.3 |
| 20260905131604 | 57 | 73 | 0.0 | 0.0 | 0.03 | 0.12 | 0.10 | 100 | 1017.7 |
| 20260905130057 | 56 | 329 | 0.0 | 0.0 | 0.01 | 0.10 | 0.08 | 100 | 1017.7 |
| 20260905124557 | 56 | 359 | 0.0 | 0.0 | 0.01 | 0.10 | 0.08 | 100 | 1017.3 |
| 20260905123110 | 56 | 262 | 0.0 | 0.0 | 0.01 | 0.10 | 0.08 | 100 | 1017.8 |
| 20260905121556 | 56 | 259 | 0.0 | 0.0 | 0.00 | 0.09 | 0.07 | 100 | 1017.7 |
| 20260905120056 | 56 | 44 | 0.0 | 0.0 | 0.00 | 0.09 | 0.07 | 100 | 1017.4 |
| 20260905120002 | 56 | 44 | 0.0 | 0.0 | 0.00 | 0.09 | 0.07 | 100 | 1017.4 |
| 20260905114556 | 56 | 44 | 0.0 | 0.0 | 0.00 | 0.09 | 0.07 | 100 | 1017.1 |
| 20260905113100 | 56 | 281 | 0.0 | 0.0 | 0.00 | 0.09 | 0.07 | 100 | 1017.0 |
| 20260905111600 | 55 | 278 | 0.0 | 0.0 | 0.00 | 0.09 | 0.07 | 100 | 1016.8 |
| 20260905110056 | 55 | 189 | 0.0 | 0.0 | 0.00 | 0.09 | 0.07 | 100 | 1016.2 |
| 20260905104557 | 55 | 281 | 0.0 | 0.0 | 0.01 | 0.09 | 0.07 | 100 | 1016.6 |
| 20260905103103 | 55 | 311 | 0.0 | 0.0 | 0.03 | 0.09 | 0.07 | 100 | 1016.2 |
| 20260905101556 | 55 | 316 | 0.0 | 0.0 | 0.03 | 0.09 | 0.07 | 100 | 1016.5 |
| 20260905100105 | 55 | 134 | 0.0 | 0.0 | 0.03 | 0.09 | 0.07 | 100 | 1015.9 |
| 20260905094556 | 55 | 231 | 0.0 | 0.0 | 0.02 | 0.08 | 0.06 | 100 | 1016.4 |
| 20260905093058 | 55 | 227 | 0.0 | 0.0 | 0.00 | 0.06 | 0.04 | 100 | 1016.0 |
| 20260905091557 | 55 | 229 | 0.0 | 0.0 | 0.00 | 0.06 | 0.04 | 100 | 1015.7 |
| 20260905090056 | 55 | 229 | 0.0 | 0.0 | 0.00 | 0.06 | 0.04 | 100 | 1016.0 |
| 20260905084608 | 55 | 229 | 0.0 | 0.0 | 0.00 | 0.06 | 0.04 | 100 | 1015.3 |
| 20260905083057 | 55 | 41 | 0.0 | 0.0 | 0.00 | 0.06 | 0.04 | 100 | 1015.1 |
| 20260905081556 | 56 | 307 | 0.0 | 0.0 | 0.02 | 0.06 | 0.04 | 100 | 1014.4 |
| 20260905080135 | 56 | 257 | 0.0 | 3.0 | 0.02 | 0.06 | 0.04 | 100 | 1014.9 |
| 20260905074556 | 56 | 185 | 0.0 | 2.0 | 0.02 | 0.06 | 0.04 | 100 | 1014.8 |
| 20260905073056 | 56 | 184 | 0.0 | 2.0 | 0.02 | 0.06 | 0.04 | 100 | 1014.5 |
| 20260905071603 | 56 | 251 | 2.0 | 4.0 | 0.00 | 0.04 | 0.02 | 100 | 1015.4 |
| 20260905070057 | 56 | 227 | 0.0 | 0.0 | 0.00 | 0.04 | 0.02 | 100 | 1014.3 |
| 20260905064601 | 56 | 230 | 0.0 | 0.0 | 0.00 | 0.04 | 0.02 | 100 | 1015.1 |
| 20260905063056 | 57 | 105 | 0.0 | 0.0 | 0.00 | 0.04 | 0.02 | 100 | 1015.1 |
| 20260905061559 | 57 | 105 | 0.0 | 0.0 | 0.00 | 0.04 | 0.02 | 100 | 1015.4 |
| 20260905054603 | 57 | 105 | 0.0 | 0.0 | 0.01 | 0.04 | 0.02 | 100 | 1015.2 |
| 20260905053109 | 57 | 100 | 0.0 | 0.0 | 0.01 | 0.04 | 0.02 | 100 | 1015.3 |
| 20260905051558 | 57 | 100 | 0.0 | 2.0 | 0.01 | 0.04 | 0.02 | 100 | 1015.5 |
| 20260905050058 | 58 | 101 | 0.0 | 5.0 | 0.01 | 0.04 | 0.02 | 100 | 1015.7 |
| 20260905044604 | 58 | 257 | 1.0 | 3.0 | 0.00 | 0.03 | 0.01 | 100 | 1016.0 |
| 20260905043109 | 58 | 169 | 1.0 | 2.0 | 0.00 | 0.03 | 0.01 | 100 | 1015.6 |
| 20260905041557 | 58 | 169 | 0.0 | 0.0 | 0.00 | 0.03 | 0.01 | 100 | 1015.7 |
| 20260905040057 | 59 | 169 | 0.0 | 0.0 | 0.01 | 0.03 | 0.01 | 100 | 1016.0 |
| 20260905034601 | 59 | 169 | 0.0 | 0.0 | 0.01 | 0.03 | 0.01 | 100 | 1016.1 |
| 20260905033057 | 59 | 171 | 0.0 | 3.0 | 0.01 | 0.03 | 0.01 | 100 | 1016.4 |
| 20260905031557 | 59 | 105 | 1.0 | 3.0 | 0.01 | 0.03 | 0.01 | 100 | 1016.1 |
| 20260905030100 | 60 | 141 | 0.0 | 2.0 | 0.00 | 0.02 | 0.00 | 100 | 1016.3 |
| 20260905030003 | 60 | 141 | 0.0 | 2.0 | 0.00 | 0.02 | 0.00 | 100 | 1016.3 |
| 20260905024558 | 60 | 271 | 0.0 | 3.0 | 0.00 | 0.02 | 0.02 | 100 | 1016.4 |
| 20260905023058 | 60 | 89 | 1.0 | 3.0 | 0.00 | 0.02 | 0.02 | 100 | 1016.0 |
| 20260905021558 | 60 | 136 | 1.0 | 3.0 | 0.00 | 0.02 | 0.02 | 100 | 1015.9 |
| 20260905020057 | 60 | 167 | 1.0 | 2.0 | 0.00 | 0.02 | 0.02 | 100 | 1016.7 |
| 20260905014557 | 60 | 168 | 0.0 | 2.0 | 0.00 | 0.02 | 0.02 | 100 | 1016.7 |
| 20260905013058 | 60 | 167 | 0.0 | 2.0 | 0.00 | 0.02 | 0.02 | 100 | 1016.7 |
| 20260905011616 | 60 | 168 | 1.0 | 3.0 | 0.00 | 0.02 | 0.02 | 100 | 1016.5 |
| 20260905010058 | 60 | 127 | 1.0 | 4.0 | 0.00 | 0.02 | 0.02 | 100 | 1016.5 |
| 20260905010000 | 60 | 127 | 1.0 | 4.0 | 0.00 | 0.02 | 0.02 | 100 | 1016.6 |
| 20260905004557 | 60 | 123 | 3.0 | 7.0 | 0.00 | 0.02 | 0.02 | 100 | 1016.4 |
| 20260905003059 | 61 | 117 | 4.0 | 6.0 | 0.00 | 0.02 | 0.02 | 100 | 1016.3 |
| 20260905001609 | 61 | 124 | 2.0 | 5.0 | 0.00 | 0.02 | 0.02 | 100 | 1016.2 |
| 20260904234557 | 61 | 110 | 1.0 | 2.0 | 0.01 | 0.02 | 0.02 | 100 | 1015.5 |
| 20260904233107 | 62 | 110 | 1.0 | 3.0 | 0.01 | 0.02 | 0.02 | 100 | 1015.3 |
| 20260904231557 | 62 | 110 | 0.0 | 0.0 | 0.01 | 0.02 | 0.02 | 100 | 1015.2 |
| 20260904230057 | 62 | 110 | 0.0 | 1.0 | 0.01 | 0.02 | 0.02 | 100 | 1015.1 |
| 20260904230002 | 62 | 110 | 0.0 | 2.0 | 0.01 | 0.02 | 0.02 | 100 | 1015.1 |
| 20260904224557 | 62 | 110 | 0.0 | 2.0 | 0.00 | 0.01 | 0.01 | 100 | 1014.7 |
| 20260904223058 | 62 | 110 | 1.0 | 3.0 | 0.00 | 0.01 | 0.01 | 100 | 1014.9 |
| 20260904221558 | 62 | 110 | 2.0 | 3.0 | 0.00 | 0.01 | 0.01 | 100 | 1014.8 |
| 20260904220108 | 62 | 87 | 1.0 | 3.0 | 0.00 | 0.01 | 0.01 | 100 | 1014.9 |
| 20260904214558 | 62 | 89 | 0.0 | 2.0 | 0.00 | 0.01 | 0.01 | 100 | 1014.8 |
| 20260904213057 | 63 | 89 | 0.0 | 3.0 | 0.00 | 0.01 | 0.01 | 100 | 1014.4 |
| 20260904211558 | 63 | 88 | 0.0 | 2.0 | 0.00 | 0.01 | 0.01 | 100 | 1014.5 |
| 20260904210100 | 63 | 55 | 1.0 | 5.0 | 0.00 | 0.01 | 0.01 | 100 | 1014.3 |
| 20260904210001 | 63 | 54 | 1.0 | 5.0 | 0.00 | 0.01 | 0.01 | 100 | 1014.4 |
| 20260904204557 | 63 | 55 | 3.0 | 6.0 | 0.00 | 0.01 | 0.01 | 100 | 1013.9 |
| 20260904203057 | 64 | 72 | 3.0 | 5.0 | 0.00 | 0.01 | 0.01 | 100 | 1013.8 |
| 20260904201613 | 64 | 46 | 2.0 | 6.0 | 0.00 | 0.01 | 0.01 | 100 | 1013.7 |
| 20260904200059 | 64 | 22 | 0.0 | 6.0 | 0.00 | 0.01 | 0.01 | 100 | 1013.7 |
| 20260904194558 | 64 | 32 | 1.0 | 4.0 | 0.01 | 0.01 | 0.01 | 100 | 1013.3 |
| 20260904193102 | 64 | 21 | 1.0 | 3.0 | 0.01 | 0.01 | 0.01 | 100 | 1013.6 |
| 20260904191557 | 64 | 14 | 0.0 | 4.0 | 0.01 | 0.01 | 0.01 | 100 | 1013.1 |
| 20260904190057 | 65 | 48 | 1.0 | 6.0 | 0.01 | 0.01 | 0.01 | 100 | 1012.6 |
| 20260904184557 | 65 | 343 | 1.0 | 2.0 | 0.00 | 0.00 | 0.00 | 100 | 1012.7 |
| 20260904183102 | 66 | 70 | 2.0 | 7.0 | 0.00 | 0.00 | 0.00 | 100 | 1012.7 |
| 20260904181600 | 66 | 100 | 4.0 | 9.0 | 0.00 | 0.00 | 0.00 | 100 | 1012.2 |
| 20260904180104 | 67 | 82 | 3.0 | 10.0 | 0.00 | 0.00 | 0.00 | 100 | 1012.1 |
| 20260904174607 | 68 | 71 | 3.0 | 8.0 | 0.00 | 0.00 | 0.00 | 100 | 1011.1 |
| 20260904173117 | 68 | 87 | 3.0 | 8.0 | 0.00 | 0.00 | 0.00 | 100 | 1011.7 |
| 20260904171605 | 68 | 127 | 6.0 | 10.0 | 0.00 | 0.00 | 0.00 | 100 | 1011.9 |
| 20260904170106 | 69 | 39 | 1.0 | 7.0 | 0.00 | 0.00 | 0.00 | 100 | 1012.6 |
| 20260904170002 | 69 | 39 | 2.0 | 7.0 | 0.00 | 0.00 | 0.00 | 100 | 1012.5 |
| 20260904164600 | 69 | 77 | 5.0 | 13.0 | 0.00 | 0.00 | 0.00 | 100 | 1011.9 |
| 20260904163057 | 71 | 134 | 2.0 | 7.0 | 0.00 | 0.00 | 0.00 | 100 | 1012.0 |
| 20260904161601 | 71 | 39 | 2.0 | 8.0 | 0.00 | 0.00 | 0.00 | 100 | 1012.3 |
| 20260904160057 | 71 | 13 | 4.0 | 9.0 | 0.00 | 0.00 | 0.00 | 100 | 1012.4 |
| 20260904160001 | 71 | 25 | 4.0 | 9.0 | 0.00 | 0.00 | 0.00 | 100 | 1012.4 |
| 20260904154557 | 72 | 26 | 4.0 | 16.0 | 0.00 | 0.00 | 0.00 | 100 | 1012.3 |
| 20260904153105 | 71 | 353 | 5.0 | 10.0 | 0.00 | 0.00 | 0.00 | 100 | 1012.2 |
| 20260904151557 | 71 | 359 | 6.0 | 10.0 | 0.00 | 0.00 | 0.00 | 100 | 1012.4 |